Weather in Wemindji

Canada     53°00′03″N   78°48′28″W
temp.,
°C
wind,
m/s
gust,
m/s
humid.,
%
clouds,
%
prec.,
mm/h
press.,
hPa
HPBL,
m
15 may, sat
sat1523:00+3wnw369142 0.0 1018140
02:00+2nw38885 0.0 1018237
05:00+2nnw5109144 0.0 1020420
08:00+3nnw478052 0.0 1023465
11:00+6nw4565100 0.0 1023721
14:00+8wnw545563 0.0 1023815
17:00+6nw565885 0.0 1024546
20:00+3nw476797 0.0 1024268
16 may, sun
sun1623:00+2n3763100 0.0 1024234
02:00+1n2571100 0.0 1024119
05:00+1nne2369100 0.0 102599
08:00+5ne22535 0.0 1026376
11:00+10sw224022 0.0 1025943
14:00+11sw3340100 0.0 1023764
17:00+11s3441100 0.0 1021419
20:00+11sse26575 0.0 1019242
17 may, mon
mon1723:00+11se5146312 0.0 1017337
02:00+11sse61862100 0.0 1014535
05:00+10s7177197 0.0 1012482
08:00+7sw71785100 0.8 1012558
11:00+6wsw51295100 2.4 1014337
14:00+3nw71174100 2.4 1018691
17:00+3nw712635 0.0 1021879
20:00+1nnw51171100 0.0 1023665
18 may, tue
tue1823:00−1nnw3782100 0.0 1025487
02:00−1n2477100 0.0 1026408
05:00−1sse1180100 0.0 102639
08:00+2sse3466100 0.0 1026437
11:00+4sse5858100 0.0 1023392
14:00+7se41153100 0.1 1020443
17:00+17sse6114090 0.0 1016654
20:00+15se386240 0.0 1014171
19 may, wed
wed1923:00+10sse37865 0.0 1013113
02:00+8sw415825 0.0 1012228
05:00+9sw518735 0.0 1013321
08:00+9ssw387696 0.0 1016222
11:00+13sw47655 0.0 1016284
14:00+15w36591 0.0 1017328
17:00+16nw35561 0.0 1017318
20:00+13w236974 0.0 1017106